Showing default

KINEIS-2A, 62932

Orbit data source: Space-Track

KINEIS-2A, 62932 is a French payload satellite in SSO that was launched on Sat, 08 Feb 2025 UTC via an ELECTRON launch vehicle from the Rocket Lab Launch Complex (RLLC). Payload-class satellites include a variety of spacecraft equipped with specific instruments for various scientific and technological missions. These include communications satellites like Starlink; space stations such as the ISS; scientific satellites like the Hubble; Earth observation satellites from companies like Planet Labs, Umbra, and HawkEye 360; GPS; miniature CubeSats for education and research; and military/defense satellites.

Loading next visibility...
Identifier
62932, 2025-028E
Orbit
SSO
Last TLE update
7 hours ago
Origin
Manufacturer
KINEIS
Mission
Operational Commercial Communications
Bus & Motor
CUBESAT 16U, Unknown motor
Mass
28 kg wet, 28 kg dry
Launch date (UTC)
2025-02-08 (5 months ago)
Launch vehicle
ELECTRON
Launch site
Rocket Lab Launch Complex (RLLC)
Object type
Payload
Rocket body
Debris
Shape & HBR
Box + 2 Pan + 1 Ant, 1.6 m
Radar Cross Section
0.229 m², Medium (>0.1 m² and < 1m²)

Expand to show TLE details & history

TLE from 7 hours ago
0 KINEIS-2A
1 62932U 25028E   25182.89975636  .00001092  00000-0  18044-3 0  9992
2 62932  98.0140 236.6016 0002686 173.4780 186.6463 14.72330780 21060
Epoch: 2025-07-01T21:35Z
TLE epoch observation values (Epoch: 2025-07-01T21:35:38.949Z)
Latitude
-0.00001°
Longitude
-7.49927°
Altitude
658.521 km
Speed
7.527 km/s
True Right ascension
15h 46m 24s
True Declination
0° 00' 00"
Sunlit
Object was in full shadow at epoch
Visualization orbit readout
Latitude
-11.31196°
Longitude
171.19912°
Altitude
657.01 km
Speed
7.529 km/s
Apparent Right ascension
04h 05m 48s
Apparent Declination
-24° 56' 34"
Sunlit
Object is in daylight
Visualization observer readout
Local Sidereal Time
16:40:32
Azimuth
28.54° NE
Elevation
-73.351°
Doppler factor
1
Orbital elements
Apogee altitude
652.581 km
Perigee altitude
648.805 km
Semi-major axis
7,028.83 km
Eccentricity
0.00027
Inclination
98.014°
RAAN
236.6016°
Arg. of periapsis
173.478°
True anomaly
Unknown
Mean anomaly
186.6463°
Eccentric anomaly
Unknown
Mean motion
3.68314 °/min
Orbital period
97.74 mins
BSTAR
0.00018044
Loading maneuver chart data...
Loading SW <> Apogee altitude chart data...
Loading historical data...
Loading historical data...
Loading historical data...
Loading historical data...
Loading historical data...
Loading historical data...
Loading historical data...

KINEIS-2A Visibility forecast

Observer location: undefined°, undefined°

Span
Click to sort rows by Start time (UTC) header in descending order
Start Az.
Max El. time (UTC)
Max El. Az.
Max El.
End time (UTC)
End Az.
8 mins2025-07-02 16:06:03.073Z24.01° NE2025-07-02 16:10:03.073Z87.486° E37.176°2025-07-02 16:14:03.073Z173.354° S
6 mins2025-07-03 03:06:03.073Z130.297° SE2025-07-03 03:09:03.073Z54.321° ENE32.764°2025-07-03 03:12:03.073Z5.674° NNE
4 mins2025-07-03 04:44:03.073Z243.706° WSW2025-07-03 04:45:03.073Z259.426° W16.465°2025-07-03 04:48:03.073Z304.439° NW
|